Weather in Hrob

Czech Republic     50°39′34″N   13°43′31″E
temp.,
°C
wind,
m/s
gust,
m/s
humid.,
%
clouds,
%
prec.,
mm/h
press.,
hPa
HPBL,
m
24 october, sun
sun2423:00+3wnw118430 0.0 103216
02:00+2sw11855 0.0 103210
05:00+1s22885 0.0 103219
08:00+1s239222 0.0 103256
11:00+6sse47675 0.0 1031452
14:00+8sse475646 0.0 1029539
17:00+7sse485683 0.0 1028407
20:00+5sse496140 0.0 1027236
25 october, mon
mon2523:00+3sse510674 0.0 1027227
02:00+2sse59750 0.0 1026189
05:00+1s47830 0.0 1025145
08:000s46914 0.0 1024122
11:00+4s4570100 0.0 1024227
14:00+7s4560100 0.0 1022313
17:00+6s3469100 0.0 1022126
20:00+5s2372100 0.0 102244
26 october, tue
tue2623:00+5ssw2371100 0.0 102241
02:00+5ssw2270100 0.0 102231
05:00+4ssw2379100 0.0 102244
08:00+3ssw248815 0.0 102268
11:00+8sw3879100 0.1 1022365
14:00+9wsw398268 1.6 1021712
17:00+9w488696 0.3 1021531
20:00+7w4991100 0.8 1023515
27 october, wed
wed2723:00+7w398558 0.1 1024431
02:00+5w26937 0.1 1025153
05:00+5wsw379576 0.0 1025196
08:00+6wsw2692100 0.0 1025173
11:00+10wsw367553 0.0 1025472
14:00+13wsw346627 0.0 1024838
17:00+11ssw2277100 0.0 102444
20:00+8ssw2287100 0.0 102519
28 october, thu
thu2823:00+8ssw228981 0.0 102623
02:00+7s239241 0.0 102541
05:00+6s339257 0.0 102549
08:00+5s349251 0.0 102564
11:00+10s457224 0.0 1024213
14:00+12sse466344 0.0 1023357
17:00+11sse48685 0.0 1021253
20:00+9sse49765 0.0 1021245